DateTimeUTC,F1_A11,F1_S11,BsB_S11,BsG_S11,BsR_S11,BbsB_S11,BbsG_S11,BbsR_S11,BaB_A11,BaG_A11,BaR_A11,T_S11,U_S11,P_S11,T1_A11
2020-07-28T00:00:00Z,00000380,20000600,,,,,,,,,,24.7,01.7,0670.0,31.0
2020-07-28T00:01:00Z,00000380,20000600,,,,,,,,,,24.7,01.7,0670.0,31.0
2020-07-28T00:02:00Z,00000380,20000600,,,,,,,,,,24.7,01.7,0670.0,31.0
2020-07-28T00:03:00Z,00000380,60000600,,,,,,,,,,24.7,01.9,0670.0,31.0
2020-07-28T00:04:00Z,00000380,40000600,0000.57,-000.01,0000.05,0000.52,-000.24,0000.14,-000.11,0000.03,-000.05,24.5,02.0,0671.0,31.0
2020-07-28T00:05:00Z,00000380,00000600,-000.05,0001.23,0001.53,0000.10,0000.40,0000.36,0002.77,0002.44,0001.79,24.5,02.1,0671.1,31.0
2020-07-28T00:06:00Z,00000380,00000600,0000.50,0000.91,0000.58,0000.77,0000.32,0000.19,-000.98,-000.92,-000.96,24.5,04.6,0671.2,31.0
2020-07-28T00:07:00Z,00000380,00000600,-000.12,-000.24,0000.70,-000.51,0000.22,0000.18,-000.33,-000.24,-000.06,24.4,03.4,0671.2,31.0
2020-07-28T00:08:00Z,00000380,00000600,0000.21,0000.18,0000.46,0000.81,0000.11,0000.12,-000.86,-000.85,-000.44,24.4,03.0,0671.2,31.0
2020-07-28T00:09:00Z,00000380,00000600,0001.23,0000.27,-000.12,0000.45,0000.24,0000.29,-000.59,-000.51,-000.32,24.4,02.1,0671.2,31.0
2020-07-28T00:10:00Z,00000380,00000600,-000.89,0000.16,0000.58,0000.38,0000.42,0000.49,-000.44,-000.41,-000.21,24.4,01.7,0671.2,31.0
2020-07-28T00:11:00Z,00000380,00000600,-000.81,0000.45,0000.15,0001.02,-000.12,0000.28,-000.40,-000.39,-000.28,24.4,01.4,0671.2,31.0
2020-07-28T00:12:00Z,00000380,01000600,-000.60,0000.56,-000.07,0000.29,0000.28,0000.00,-000.31,-000.06,-000.10,24.4,01.1,0671.2,31.0
2020-07-28T00:13:00Z,00000380,01000600,0000.23,0000.65,-000.05,0000.61,0000.45,-000.11,-000.24,-000.26,-000.19,24.4,01.0,0671.2,31.0
2020-07-28T00:14:00Z,00000380,01000600,0000.50,0000.48,0000.16,0000.30,0000.05,0000.49,-000.11,-000.23,0000.01,24.4,00.8,0671.2,31.0
2020-07-28T00:15:00Z,00000380,01000600,0000.40,0000.19,0000.04,0000.13,0000.44,0000.04,0000.01,0000.18,-000.01,24.4,00.8,0671.2,31.0
2020-07-28T00:16:00Z,00000380,01000600,-001.33,0000.17,-000.40,-000.24,0000.41,0000.05,-000.15,-000.16,-000.03,24.4,00.8,0671.2,31.0
2020-07-28T00:17:00Z,00000380,01000600,0001.20,-000.06,-000.37,0000.48,0000.20,-000.20,0000.46,0000.41,0000.27,24.4,00.8,0671.2,31.0
2020-07-28T00:18:00Z,00000380,01000600,0000.75,-000.04,0000.15,0000.31,0000.09,0000.03,0000.31,0000.21,0000.16,24.4,01.1,0671.2,31.0
2020-07-28T00:19:00Z,00000380,00000600,-000.25,0000.62,-000.46,0000.27,-000.08,-000.27,0000.22,0000.23,0000.07,24.4,01.4,0671.2,31.0
2020-07-28T00:20:00Z,00000380,00000600,-000.07,-000.20,0000.23,0001.02,0000.09,0000.21,0000.28,0000.28,0000.23,24.4,01.6,0671.2,31.0
2020-07-28T00:21:00Z,00000380,00000600,0000.88,0000.36,0000.19,-000.07,0000.17,0000.21,0000.51,0000.30,0000.18,24.3,01.9,0671.2,31.0
2020-07-28T00:22:00Z,00000380,00000600,-000.91,-000.10,-000.45,0000.76,0000.44,-000.02,-000.07,0000.07,-000.03,24.4,02.0,0671.2,31.0
2020-07-28T00:23:00Z,00000380,00000600,0000.37,0000.15,0000.31,-000.28,-000.07,0000.61,-000.58,-000.60,-000.30,24.3,01.7,0671.2,31.0
2020-07-28T00:24:00Z,00000380,00000600,-000.12,-000.27,-000.52,0001.09,0000.27,0000.21,-000.25,-000.18,-000.21,24.3,01.5,0671.2,31.0
2020-07-28T00:25:00Z,00000380,01000600,-000.39,0000.37,0000.13,0000.91,-000.09,0000.04,-000.46,-000.40,-000.14,24.3,01.2,0671.2,31.0
2020-07-28T00:26:00Z,00000380,01000600,-000.43,0000.27,0000.70,-000.03,-000.08,0000.20,0000.01,0000.10,-000.11,24.3,01.0,0671.2,31.0
2020-07-28T00:27:00Z,00000380,01000600,0001.09,-000.14,-000.17,-000.32,0000.27,0000.53,-000.39,-000.43,-000.25,24.3,01.0,0671.2,31.0
2020-07-28T00:28:00Z,00000380,01000600,0000.56,0000.14,-000.04,-000.23,0000.49,-000.13,-000.18,-000.01,0000.12,24.3,00.8,0671.2,31.0
2020-07-28T00:29:00Z,00000380,01000600,-000.31,0000.28,0000.29,0000.77,0000.21,-000.30,0000.09,-000.04,-000.06,24.3,00.8,0671.2,31.0
2020-07-28T00:30:00Z,00000380,01000600,0000.09,0000.39,0000.27,0000.43,0000.03,-000.22,0000.95,0000.71,0000.60,24.3,00.8,0671.2,31.0
2020-07-28T00:31:00Z,00000380,01000600,0001.00,0000.67,0000.03,0000.91,0000.38,0000.02,-000.69,-000.57,-000.44,24.3,01.1,0671.2,31.0
2020-07-28T00:32:00Z,00000380,01000600,0000.55,-000.05,0000.17,0000.38,0000.37,0000.08,-000.07,-000.18,-000.19,24.3,00.8,0671.1,31.0
2020-07-28T00:33:00Z,00000380,01000600,0000.00,-000.26,0000.40,0000.49,0000.15,0000.34,-000.15,0000.15,0000.07,24.2,00.8,0671.2,31.0
2020-07-28T00:34:00Z,00000380,01000600,-000.20,0000.07,0000.81,-000.42,0000.37,-000.31,-000.14,-000.24,-000.00,24.2,00.8,0671.2,31.0
2020-07-28T00:35:00Z,00000380,01000600,-000.20,0000.21,0000.16,0000.18,0000.34,0000.21,-000.00,-000.06,-000.17,24.2,00.7,0671.2,31.0
2020-07-28T00:36:00Z,00000380,01000600,0000.03,0000.68,-000.06,0000.17,0000.31,-000.09,-000.22,-000.16,-000.11,24.2,00.6,0671.1,31.0
2020-07-28T00:37:00Z,00000380,01000600,-000.90,0000.38,-000.01,-000.35,0000.22,-000.15,-000.01,0000.06,0000.02,24.2,00.5,0671.2,31.0
2020-07-28T00:38:00Z,00000380,01000600,0000.54,-000.03,0000.42,-000.21,-000.18,0000.21,-000.11,-000.03,0000.05,24.2,00.5,0671.2,31.0
2020-07-28T00:39:00Z,00000380,01000600,0000.17,0000.07,0000.43,-000.00,0000.06,0000.13,-000.12,-000.16,-000.19,24.2,00.5,0671.1,31.0
2020-07-28T00:40:00Z,00000380,01000600,-000.28,-000.21,0000.51,0000.70,0000.11,0000.34,0000.26,0000.06,0000.13,24.2,00.4,0671.1,31.0
2020-07-28T00:41:00Z,00000380,01000600,0000.42,0000.25,-000.15,0000.46,0000.14,0000.22,0000.04,0000.33,0000.10,24.2,00.5,0671.1,30.9
2020-07-28T00:42:00Z,00000380,01000600,-000.31,0000.33,0000.47,0000.72,-000.35,0000.44,0000.10,0000.01,-000.02,24.1,00.5,0671.1,31.0
2020-07-28T00:43:00Z,00000380,01000600,-000.18,0000.10,-000.15,0000.49,-000.21,-000.41,-000.07,-000.04,0000.08,24.1,00.6,0671.1,31.0
2020-07-28T00:44:00Z,00000380,01000600,-000.70,0000.12,0000.25,0000.19,-000.17,0000.27,-000.21,-000.20,-000.29,24.1,00.5,0671.1,31.0
2020-07-28T00:45:00Z,00000380,01000600,-000.19,0000.06,-000.27,0000.64,-000.30,-000.01,0000.14,0000.04,0000.19,24.1,00.5,0671.1,31.0
2020-07-28T00:46:00Z,00000380,01000600,0000.41,-000.10,-000.14,0000.20,0000.52,0000.11,0000.40,0000.39,0000.25,24.1,00.7,0671.1,31.0
2020-07-28T00:47:00Z,00000380,01000600,0000.82,0000.55,0000.27,-000.63,-000.14,0000.27,-000.03,-000.13,-000.10,24.1,00.8,0671.1,31.0
2020-07-28T00:48:00Z,00000380,01000600,-000.85,0000.31,0000.21,0000.22,0000.02,0000.02,0000.01,0000.13,-000.04,24.1,00.8,0671.1,31.0
2020-07-28T00:49:00Z,00000380,01000600,-001.47,0000.53,0000.08,0000.59,0000.13,-000.16,0000.89,0000.74,0000.65,24.1,01.0,0671.1,31.0
2020-07-28T00:50:00Z,00000380,00000600,-001.26,0000.39,0000.11,0000.39,0000.22,0000.01,-000.04,-000.10,-000.03,24.1,01.4,0671.1,31.0
2020-07-28T00:51:00Z,00000380,01000600,0001.45,0000.39,0000.45,0000.66,-000.26,0000.34,-000.26,-000.44,-000.24,24.1,01.3,0671.1,31.0
2020-07-28T00:52:00Z,00000380,01000600,0001.56,0001.01,-000.09,0000.40,-000.08,0000.12,-000.49,-000.36,-000.34,24.1,01.0,0671.1,30.9
2020-07-28T00:53:00Z,00000380,01000600,0001.28,0000.35,0000.32,-000.32,0000.11,0000.15,-000.30,-000.04,0000.01,24.1,00.8,0671.1,31.0
2020-07-28T00:54:00Z,00000380,01000600,0000.53,0000.17,-000.08,0000.62,-000.34,0000.19,-000.06,-000.17,-000.13,24.1,00.6,0671.1,31.0
2020-07-28T00:55:00Z,00000380,01000600,-000.73,0000.63,0000.36,0000.30,0000.10,0000.33,-000.24,-000.17,-000.09,24.0,00.6,0671.1,31.0
2020-07-28T00:56:00Z,00000380,01000600,-000.07,0000.39,0000.45,0000.47,0000.32,0000.34,-000.09,-000.07,-000.15,24.0,00.5,0671.1,31.0
2020-07-28T00:57:00Z,00000380,41000600,,,,,,,,,,24.0,00.8,0671.2,30.9
2020-07-28T00:58:00Z,00000380,61000600,,,,,,,,,,24.2,00.6,0670.1,30.9
2020-07-28T00:59:00Z,00000380,21000600,,,,,,,,,,24.3,00.6,0670.1,30.9
2020-07-28T01:00:00Z,00000380,21000600,,,,,,,,,,24.3,00.4,0670.1,30.9
2020-07-28T01:01:00Z,00000380,21000600,,,,,,,,,,24.3,00.4,0670.1,31.0
2020-07-28T01:02:00Z,00000380,21000600,,,,,,,,,,24.3,00.4,0670.1,30.9
2020-07-28T01:03:00Z,00000380,61000600,,,,,,,,,,24.3,00.4,0670.1,30.9
2020-07-28T01:04:00Z,00000380,41000600,-000.66,-000.26,-000.25,-000.73,-000.02,-000.30,-000.05,0000.10,-000.01,24.1,00.4,0671.0,30.9
2020-07-28T01:05:00Z,00000380,01000600,0000.76,-000.05,0000.22,0000.52,0000.56,0000.03,0000.04,-000.04,0000.09,24.0,00.3,0671.1,30.9
2020-07-28T01:06:00Z,00000380,01000600,0000.05,-000.38,0000.61,0000.18,0000.02,0000.26,0000.02,0000.07,0000.03,24.0,00.3,0671.1,30.9
2020-07-28T01:07:00Z,00000380,01000600,-000.24,0000.16,0000.58,0000.22,0000.17,0000.22,-000.01,-000.07,-000.13,24.0,00.3,0671.1,30.9
2020-07-28T01:08:00Z,00000380,01000600,0000.29,-000.36,0000.15,-000.23,0000.09,-000.08,-000.19,-000.03,-000.12,24.0,00.3,0671.1,30.9
2020-07-28T01:09:00Z,00000380,01000600,-000.55,0000.13,0000.12,0000.60,-000.06,-000.07,0000.00,-000.11,0000.21,23.9,00.3,0671.1,30.9
2020-07-28T01:10:00Z,00000380,01000600,0000.39,-000.07,0000.05,-000.20,-000.03,0000.37,0000.07,-000.09,-000.08,23.9,00.2,0671.1,30.9
2020-07-28T01:11:00Z,00000380,01000600,-000.19,-000.43,-000.03,0000.16,0000.14,0000.53,-000.08,0000.27,0000.00,23.9,00.2,0671.1,30.9
2020-07-28T01:12:00Z,00000380,01000600,-000.23,-000.40,0000.23,-000.50,-000.18,0000.29,0000.05,-000.10,-000.10,24.0,00.2,0671.1,30.9
2020-07-28T01:13:00Z,00000380,01000600,0000.04,-000.05,-000.21,0000.80,0000.25,-000.15,-000.12,-000.20,-000.06,24.0,00.2,0671.1,31.0
2020-07-28T01:14:00Z,00000380,01000600,0000.80,-000.12,0000.12,0000.39,0000.37,0000.13,-000.08,0000.11,-000.00,24.0,00.2,0671.1,31.0
2020-07-28T01:15:00Z,00000380,01000600,0000.05,0000.20,-000.07,-000.57,0000.26,-000.14,0000.00,-000.10,-000.01,24.0,00.1,0671.1,31.0
2020-07-28T01:16:00Z,00000380,01000600,0000.25,0000.44,0000.52,0000.43,-000.40,0000.24,-000.04,-000.02,-000.07,24.0,00.1,0671.1,31.0
2020-07-28T01:17:00Z,00000380,01000600,0000.30,0000.11,0000.26,-000.27,-000.18,-000.01,0000.01,0000.01,0000.12,23.9,00.1,0671.1,31.0
2020-07-28T01:18:00Z,00000380,01000600,-000.03,-000.19,0000.12,-000.41,0000.01,-000.15,0000.02,0000.12,-000.03,23.9,00.1,0671.0,31.0
2020-07-28T01:19:00Z,00000380,01000600,0000.32,-000.20,0000.21,-000.48,-000.13,0000.19,0000.07,-000.02,-000.05,23.9,00.1,0671.0,30.9
2020-07-28T01:20:00Z,00000380,01000600,0000.88,0000.11,0000.41,0000.05,-000.07,0000.10,-000.09,-000.08,0000.01,23.9,00.1,0671.0,30.9
2020-07-28T01:21:00Z,00000380,01000600,-000.18,0000.07,0000.46,-000.45,-000.09,0000.27,0000.09,-000.03,-000.03,23.9,00.2,0671.0,30.9
2020-07-28T01:22:00Z,00000380,01010600,-000.80,-000.38,-000.21,-000.45,-000.14,-000.05,-000.00,0000.12,0000.14,23.9,00.2,0671.0,30.9
2020-07-28T01:23:00Z,00000380,01000600,0000.97,0000.09,-000.17,0000.11,0000.10,-000.08,0000.03,0000.07,-000.01,23.9,00.2,0671.0,31.0
2020-07-28T01:24:00Z,00000380,01000600,0000.20,0000.26,0000.22,-000.05,-000.15,0000.26,0000.10,-000.10,0000.03,23.9,00.2,0671.0,31.0
2020-07-28T01:25:00Z,00000380,01000600,-001.33,0000.20,0001.01,0000.90,0000.01,0000.05,0000.07,0000.08,0000.04,23.9,00.1,0671.0,30.9
2020-07-28T01:26:00Z,00000380,01000600,-001.25,-000.52,0000.15,0000.11,0000.57,0000.39,0000.09,0000.19,0000.05,23.9,00.2,0671.0,30.9
2020-07-28T01:27:00Z,00000380,01000600,-000.84,0000.70,0000.08,-000.00,-000.10,-000.21,-000.10,0000.01,-000.09,23.9,00.1,0671.0,30.9
2020-07-28T01:28:00Z,00000380,01000600,-000.43,0000.05,0000.55,0000.00,0000.20,0000.17,0001.01,0000.74,0000.74,23.9,00.2,0671.0,30.9
2020-07-28T01:29:00Z,00000380,01000600,-000.83,-000.17,-000.29,-000.32,0000.23,-000.56,-000.27,-000.15,-000.13,23.9,00.8,0671.0,30.9
2020-07-28T01:30:00Z,00000380,01000600,-001.30,-000.08,-000.16,0000.35,-000.04,0000.18,-000.14,-000.22,-000.20,23.9,00.6,0671.0,30.9
2020-07-28T01:31:00Z,00000380,01000600,-000.36,0000.41,0000.02,0000.25,0000.04,0000.30,-000.01,-000.05,0000.05,23.9,00.4,0671.0,31.0
2020-07-28T01:32:00Z,00000380,01000600,0001.05,-000.52,0000.02,-000.41,-000.05,0000.11,-000.07,0000.07,-000.08,23.9,00.4,0670.9,30.9
2020-07-28T01:33:00Z,00000380,01000600,-001.51,-000.01,-000.15,-000.01,-000.07,0000.18,0000.11,0000.03,0000.05,23.8,00.4,0670.9,30.9
2020-07-28T01:34:00Z,00000380,01000600,-000.36,0000.55,0000.31,-000.12,-000.02,0000.14,0000.02,-000.07,-000.08,23.8,00.5,0670.9,30.9
2020-07-28T01:35:00Z,00000380,01000600,-000.41,-000.28,0000.17,-000.25,-000.05,-000.20,0000.07,-000.01,0000.05,23.8,00.4,0670.9,30.9
2020-07-28T01:36:00Z,00000380,01000600,0000.67,-000.16,-000.02,0000.61,-000.27,0000.58,-000.22,0000.01,0000.01,23.8,00.4,0670.9,30.9
2020-07-28T01:37:00Z,00000380,01000600,0000.49,-000.03,0000.48,0000.60,-000.27,0000.08,-000.03,-000.02,-000.21,23.8,00.4,0670.9,30.9
2020-07-28T01:38:00Z,00000380,01000600,-000.84,-000.43,0000.18,0000.87,0000.35,0000.21,0000.13,-000.00,0000.12,23.8,00.4,0671.0,30.9
2020-07-28T01:39:00Z,00000380,01000600,0000.53,0000.12,0000.03,-000.06,-000.02,-000.23,-000.08,-000.13,-000.10,23.8,00.3,0670.9,30.9
2020-07-28T01:40:00Z,00000380,01000600,0000.59,-000.42,0000.32,0000.17,-000.15,0000.46,-000.03,-000.04,-000.01,23.8,00.3,0671.0,30.9
2020-07-28T01:41:00Z,00000380,01000600,0000.23,-000.23,0000.39,-000.01,0000.05,0000.27,0000.43,0000.62,0000.50,23.8,00.3,0671.0,30.9
2020-07-28T01:42:00Z,00000380,01000600,0000.50,-000.25,-000.07,0000.52,-000.11,0000.04,-000.48,-000.45,-000.43,23.9,00.5,0670.9,30.9
2020-07-28T01:43:00Z,00000380,01000600,0000.95,0000.23,0000.52,0000.43,0000.20,-000.00,-000.14,0000.04,-000.02,23.9,00.2,0671.0,30.9
2020-07-28T01:44:00Z,00000380,01000600,0000.35,-000.01,-000.05,-000.04,-000.36,-000.13,-000.02,-000.12,-000.05,23.9,00.2,0671.0,30.9
2020-07-28T01:45:00Z,00000380,01000600,-000.82,0000.36,0000.77,0000.35,-000.12,0000.26,-000.02,-000.10,0000.04,23.9,00.2,0671.0,31.0
2020-07-28T01:46:00Z,00000380,01000600,0000.09,-000.10,-000.58,0000.21,0000.17,0000.29,-000.10,-000.04,-000.01,23.9,00.1,0671.0,31.0
2020-07-28T01:47:00Z,00000380,01000600,-000.29,-000.25,0000.23,0000.75,-000.01,0000.28,-000.10,-000.02,-000.06,23.9,00.1,0671.0,30.9
2020-07-28T01:48:00Z,00000380,01000600,-000.00,0000.23,-000.09,0000.89,0000.03,0000.20,-000.04,0000.01,-000.14,23.9,00.1,0670.9,30.9
2020-07-28T01:49:00Z,00000380,01000600,0000.64,0000.48,0000.82,-000.00,-000.21,0000.11,0002.89,0002.28,0001.71,23.8,00.6,0671.0,30.9
2020-07-28T01:50:00Z,00000380,01000600,0000.22,0000.06,0000.20,-000.17,0000.25,0000.11,-001.64,-001.36,-001.07,23.8,01.4,0671.0,30.9
2020-07-28T01:51:00Z,00000380,01000600,-001.09,0000.14,0000.26,-001.08,-000.26,0000.31,-000.69,-000.66,-000.36,23.8,00.6,0671.0,30.9
2020-07-28T01:52:00Z,00000380,01000600,0000.69,0000.00,0000.07,0000.22,-000.08,-000.02,-000.14,-000.22,-000.04,23.8,00.3,0671.0,30.9
2020-07-28T01:53:00Z,00000380,01000600,-001.19,0000.24,0000.11,0000.09,-000.63,-000.30,-000.11,-000.02,-000.07,23.8,00.2,0671.0,30.9
2020-07-28T01:54:00Z,00000380,01000600,0000.63,-000.26,-000.09,-000.42,-000.44,0000.23,-000.00,-000.07,-000.09,23.8,00.1,0670.9,30.9
2020-07-28T01:55:00Z,00000380,01000600,0001.09,-000.25,0000.35,-000.21,0000.08,-000.14,-000.09,-000.05,0000.15,23.8,00.2,0670.9,30.9
2020-07-28T01:56:00Z,00000380,01000600,-000.39,-000.15,0000.02,0001.28,0000.19,0000.06,-000.05,0000.12,-000.09,23.8,00.1,0670.9,30.9
2020-07-28T01:57:00Z,00000380,41000600,,,,,,,,,,23.8,00.2,0670.9,31.0
2020-07-28T01:58:00Z,00000380,61000600,,,,,,,,,,24.0,00.1,0669.9,30.9
2020-07-28T01:59:00Z,00000380,21000600,,,,,,,,,,24.1,00.0,0669.9,30.9
2020-07-28T02:00:00Z,00000380,21000600,,,,,,,,,,24.1,00.0,0669.9,30.9
2020-07-28T02:01:00Z,00000380,21000600,,,,,,,,,,24.1,00.0,0669.9,30.9
2020-07-28T02:02:00Z,00000380,21000600,,,,,,,,,,24.1,00.0,0669.9,30.9
2020-07-28T02:03:00Z,00000380,61000600,,,,,,,,,,24.1,00.0,0669.9,30.9
2020-07-28T02:04:00Z,00000380,41000600,-000.00,-000.14,-000.46,0000.48,-000.10,-000.27,0000.16,0000.09,0000.06,23.9,00.1,0670.8,30.9
2020-07-28T02:05:00Z,00000380,01000600,0000.54,0000.07,0000.27,0000.27,-000.07,0000.11,-000.07,-000.15,-000.04,23.8,00.1,0670.9,30.9
2020-07-28T02:06:00Z,00000380,01000600,-000.38,-000.06,-000.01,0000.28,0000.14,-000.09,-000.17,0000.14,0000.00,23.8,00.1,0670.9,30.9
2020-07-28T02:07:00Z,00000380,01000600,-000.20,-000.18,0000.02,0000.54,0000.46,0000.19,0000.14,-000.12,-000.05,23.8,00.1,0670.8,30.9
2020-07-28T02:08:00Z,00000380,01000600,0000.91,0000.01,0000.05,0002.00,0000.04,0000.03,0000.06,-000.05,0000.02,23.8,00.1,0670.8,30.9
2020-07-28T02:09:00Z,00000380,01000600,0000.36,0000.19,0000.03,0000.08,0000.24,-000.17,-000.05,0000.05,-000.02,23.7,00.1,0670.8,30.9
2020-07-28T02:10:00Z,00000380,01000600,-000.62,-000.52,-000.10,0001.52,-000.10,0000.11,0000.25,0000.07,0000.18,23.7,00.2,0670.8,30.9
2020-07-28T02:11:00Z,00000380,01000600,0000.22,-000.10,-000.09,0000.21,0000.04,-000.07,0000.05,0000.22,0000.06,23.7,00.2,0670.8,30.9
2020-07-28T02:12:00Z,00000380,01000600,-000.94,0000.14,-000.04,0000.49,0000.41,0000.09,0000.01,0000.12,0000.10,23.8,00.1,0670.8,30.9
2020-07-28T02:13:00Z,00000380,01000600,0000.12,-000.07,-000.61,0000.72,-000.31,-000.13,0000.08,-000.05,0000.02,23.8,00.2,0670.8,30.9
2020-07-28T02:14:00Z,00000380,01000600,0000.65,0000.01,-000.33,-000.07,-000.09,-000.40,-000.16,0000.06,-000.12,23.8,00.2,0670.9,30.9
2020-07-28T02:15:00Z,00000380,01000600,-000.40,-000.42,-000.22,0000.07,-000.30,-000.28,-000.16,-000.16,0000.01,23.8,00.1,0670.9,30.9
2020-07-28T02:16:00Z,00000380,01000600,0000.16,-000.04,0000.18,0000.11,0000.22,0000.02,-000.03,-000.14,-000.24,23.8,00.1,0670.9,30.9
2020-07-28T02:17:00Z,00000380,01000600,0000.87,0000.01,-000.12,0000.92,-000.06,0000.03,0000.00,0000.01,0000.02,23.8,00.1,0670.9,30.9
2020-07-28T02:18:00Z,00000380,01000600,-000.43,0000.15,-000.23,0000.24,0000.23,0000.49,-000.12,-000.19,-000.07,23.7,00.1,0670.9,30.9
2020-07-28T02:19:00Z,00000380,01000600,0000.16,-000.30,-000.14,0000.74,-000.28,-000.05,-000.04,0000.12,-000.08,23.7,00.1,0670.9,30.9
2020-07-28T02:20:00Z,00000380,01000600,0000.22,0000.05,-000.50,0000.95,0000.14,0000.05,0000.25,0000.12,0000.31,23.7,00.2,0670.9,30.9
2020-07-28T02:21:00Z,00000380,01000600,-001.35,-000.05,-000.64,0001.01,0000.20,-000.09,-000.14,0000.01,-000.13,23.7,00.1,0670.9,30.9
2020-07-28T02:22:00Z,00000380,01000600,0000.38,-000.75,-000.16,0000.51,-000.35,0000.16,-000.12,-000.22,-000.03,23.7,00.1,0670.9,30.9
2020-07-28T02:23:00Z,00000380,01000600,0002.08,-000.04,0000.29,0000.54,0000.07,0000.00,0000.07,0000.03,-000.02,23.7,00.1,0670.9,30.9
2020-07-28T02:24:00Z,00000380,01000600,0000.48,-000.14,-000.03,0000.22,-000.52,-000.51,0000.39,0000.20,0000.15,23.7,00.1,0670.9,30.9
2020-07-28T02:25:00Z,00000380,01000600,0000.25,-000.35,-000.32,0001.05,-000.14,-000.41,-000.25,-000.11,0000.08,23.7,00.1,0670.8,30.9
2020-07-28T02:26:00Z,00000380,01000600,-000.02,0000.18,0000.01,0000.32,-000.16,-000.14,-000.01,0000.07,-000.03,23.7,00.1,0670.9,30.9
2020-07-28T02:27:00Z,00000380,01000600,-000.70,0000.05,0000.14,0000.83,0000.09,0000.25,0000.08,0000.16,0000.01,23.7,00.1,0670.9,30.9
2020-07-28T02:28:00Z,00000380,01000600,-000.01,0000.72,-000.31,-000.11,-000.06,-000.10,-000.03,-000.16,-000.00,23.8,00.1,0670.9,30.9
2020-07-28T02:29:00Z,00000380,01000600,0000.43,0000.12,-000.10,0001.15,0000.14,0000.04,-000.02,0000.03,0000.09,23.7,00.1,0670.9,30.9
2020-07-28T02:30:00Z,00000380,01000600,-000.01,0000.37,-000.10,0001.08,-000.33,0000.00,-000.02,0000.03,-000.10,23.8,00.1,0670.9,30.9
2020-07-28T02:31:00Z,00000380,01000600,0000.40,0000.73,-000.91,0000.43,-000.37,-000.53,-000.03,-000.10,-000.17,23.7,00.1,0670.8,30.9
2020-07-28T02:32:00Z,00000380,01000600,-001.46,-000.22,-000.20,0000.19,-000.17,0000.05,-000.06,0000.00,0000.09,23.7,00.1,0670.8,30.9
2020-07-28T02:33:00Z,00000380,01000600,0001.01,-000.18,-000.34,0000.75,-000.08,0000.14,-000.07,-000.01,0000.02,23.7,00.1,0670.8,30.9
2020-07-28T02:34:00Z,00000380,01000600,0000.74,0000.61,0000.02,0000.88,0000.13,-000.41,-000.05,-000.21,-000.21,23.7,00.1,0670.9,30.9
2020-07-28T02:35:00Z,00000380,01000600,-000.56,0000.07,0000.47,0000.35,-000.29,-000.11,-000.05,0000.00,0000.08,23.6,00.0,0670.8,30.9
2020-07-28T02:36:00Z,00000380,01000600,-000.94,-000.31,-000.16,0000.39,-000.22,-000.24,-000.15,-000.16,-000.15,23.7,00.0,0670.9,30.9
2020-07-28T02:37:00Z,00000380,01000600,0001.04,0000.13,-000.08,0000.08,0000.12,-000.12,0000.06,0000.17,0000.04,23.6,00.0,0670.9,30.9
2020-07-28T02:38:00Z,00000380,01000600,0000.40,-000.38,-000.25,0000.29,-000.13,-000.08,-000.07,-000.08,0000.08,23.6,00.0,0670.9,30.9
2020-07-28T02:39:00Z,00000380,01000600,0000.12,0000.17,-000.30,0000.28,-000.04,-000.45,0000.16,-000.12,0000.04,23.6,00.0,0670.9,30.9
2020-07-28T02:40:00Z,00000380,01000600,0000.33,0000.36,-000.04,0000.25,-000.06,0000.08,-000.06,0000.03,0000.04,23.6,00.0,0670.8,30.9
2020-07-28T02:41:00Z,00000380,01000600,-001.05,-000.02,-000.53,-000.09,-000.07,-000.39,-000.01,0000.11,0000.03,23.6,00.0,0670.8,30.9
2020-07-28T02:42:00Z,00000380,01000600,-000.40,0000.38,-000.76,0001.05,0000.28,-000.21,0000.07,0000.16,-000.01,23.6,00.0,0670.8,30.9
2020-07-28T02:43:00Z,00000380,01000600,0001.10,0000.42,-000.15,-000.17,-000.20,-000.25,-000.00,-000.18,0000.01,23.7,00.0,0670.8,30.9
2020-07-28T02:44:00Z,00000380,01000600,0000.21,0000.43,-000.06,0000.62,0000.04,-000.16,0000.09,0000.11,0000.03,23.7,00.0,0670.8,30.9
2020-07-28T02:45:00Z,00000380,01000600,0000.74,0000.04,-000.15,0000.78,-000.23,-000.37,-000.03,0000.16,-000.04,23.7,00.0,0670.8,30.9
2020-07-28T02:46:00Z,00000380,01000600,0000.37,0000.48,0000.11,0000.75,0000.15,0000.03,-000.13,-000.18,-000.04,23.6,00.0,0670.7,30.9
2020-07-28T02:47:00Z,00000380,01000600,0000.65,-000.01,-000.57,0000.30,-000.23,-000.35,0000.06,0000.02,-000.03,23.6,00.0,0670.8,30.9
2020-07-28T02:48:00Z,00000380,01000600,0000.21,-000.20,0000.00,0000.53,-000.50,0000.21,-000.10,0000.01,-000.04,23.6,00.0,0670.7,30.9
2020-07-28T02:49:00Z,00000380,01000600,0000.55,-000.09,0000.52,0000.60,-000.42,0000.07,-000.00,0000.08,0000.03,23.6,00.0,0670.7,30.9
2020-07-28T02:50:00Z,00000380,01000600,0000.41,0000.16,-000.20,0000.58,-000.21,-000.22,0000.09,-000.19,-000.04,23.6,00.0,0670.7,30.9
2020-07-28T02:51:00Z,00000380,01000600,0000.18,0000.10,-000.36,0000.32,-000.12,-000.12,-000.18,-000.01,0000.06,23.6,00.0,0670.7,30.9
2020-07-28T02:52:00Z,00000380,01000600,0000.05,-000.06,-000.22,0000.16,-000.28,-000.16,-000.12,-000.07,-000.11,23.6,00.0,0670.7,30.9
2020-07-28T02:53:00Z,00000380,01000600,0000.54,0000.15,-000.28,0000.01,-000.20,-000.16,0000.06,-000.04,0000.01,23.5,00.0,0670.7,30.9
2020-07-28T02:54:00Z,00000380,01000600,-000.08,0000.04,-000.40,0000.97,0000.43,-000.30,0000.07,-000.06,0000.09,23.5,00.0,0670.7,30.9
2020-07-28T02:55:00Z,00000380,01000600,0000.69,0000.04,-000.06,0000.34,-000.41,0000.12,0000.15,0000.09,0000.01,23.5,00.0,0670.7,30.9
2020-07-28T02:56:00Z,00000380,01000600,-000.13,0000.03,-000.09,0000.93,-000.30,-000.46,-000.11,0000.16,0000.10,23.5,00.0,0670.7,30.9
2020-07-28T02:57:00Z,00000380,41000600,,,,,,,,,,23.6,00.0,0670.7,30.9
2020-07-28T02:58:00Z,00000380,61000600,,,,,,,,,,23.8,00.0,0669.7,31.0
2020-07-28T02:59:00Z,00000380,21000600,,,,,,,,,,23.9,00.0,0669.7,30.9
2020-07-28T03:00:00Z,00000380,21000600,,,,,,,,,,23.9,00.0,0669.7,30.9
2020-07-28T03:01:00Z,00000380,21000600,,,,,,,,,,23.9,00.0,0669.7,30.9
2020-07-28T03:02:00Z,00000380,21000600,,,,,,,,,,23.9,00.0,0669.7,30.9
2020-07-28T03:03:00Z,00000380,61000600,,,,,,,,,,23.9,00.0,0669.7,30.9
2020-07-28T03:04:00Z,00000380,41000600,0000.93,0000.28,0000.25,-000.02,0000.38,0000.25,0000.03,-000.04,-000.02,23.7,00.0,0670.6,30.9
2020-07-28T03:05:00Z,00000380,01000600,-000.95,0000.45,0000.25,-000.11,0000.18,-000.06,-000.08,-000.07,0000.05,23.6,00.0,0670.7,30.9
2020-07-28T03:06:00Z,00000380,01000600,0000.67,0000.08,0000.14,-000.25,0000.18,0000.02,0000.02,-000.13,-000.06,23.6,00.0,0670.7,30.9
2020-07-28T03:07:00Z,00000380,01000600,-000.16,0000.87,-000.10,-000.26,0000.20,0000.25,0000.10,0000.09,0000.01,23.5,00.0,0670.7,30.9
2020-07-28T03:08:00Z,00000380,01000600,-000.21,0000.88,0000.22,0000.67,0000.39,0000.18,0000.03,0000.02,-000.05,23.5,00.0,0670.7,30.9
2020-07-28T03:09:00Z,00000380,01000600,0000.97,0000.47,0000.27,0000.85,0000.24,0000.07,-000.07,0000.08,0000.27,23.5,00.0,0670.6,30.9
2020-07-28T03:10:00Z,00000380,01000600,0001.19,0000.93,0000.05,-000.20,0000.37,-000.08,0000.19,0000.00,-000.05,23.5,00.0,0670.6,30.9